Theta_e
346 346 345 346 346 346 345 345 346 345 344 346 346 344 344 343 343 342 343 343 342 341 338 338 338 333 335 338 336 335 329 331 335 337 334 332 331 325 328 327 332 326 329
345 344 345 346 346 347 347 346 346 347 347 346 347 347 348 346 346 345 345 345 344 343 341 339 339 339 334 333 336 336 337 336 335 336 337 336 332 331 324 323 325 331 331
346 345 345 346 346 348 347 346 347 346 346 347 348 348 349 348 346 346 345 346 346 346 344 343 342 339 339 333 333 336 336 336 336 335 335 336 337 335 332 330 321 324 333
346 346 345 345 346 346 346 347 346 347 347 348 349 348 347 347 348 348 347 347 347 346 345 344 344 343 341 340 333 334 337 336 336 337 336 335 336 336 334 331 331 323 323
347 347 347 346 347 345 345 346 346 349 349 347 348 346 345 345 347 347 348 348 347 344 345 345 344 345 343 342 339 334 335 336 336 336 338 337 336 336 335 334 333 332 321
349 349 349 347 347 345 345 346 348 350 347 345 345 346 347 346 346 347 347 347 346 346 346 346 346 345 346 344 340 337 335 335 335 331 334 337 336 336 337 336 335 334 331
349 350 350 349 348 348 346 348 349 346 343 344 346 345 344 343 345 345 345 345 345 345 346 347 344 345 345 344 343 340 336 335 334 333 333 334 337 337 336 336 336 336 336
347 348 349 350 348 349 350 347 347 348 344 345 347 348 347 345 346 346 344 341 343 344 343 345 345 345 346 345 344 341 340 338 336 334 334 334 334 337 338 337 336 336 335
347 346 348 351 350 351 349 345 345 346 346 346 347 349 350 349 349 346 342 341 343 343 342 344 344 345 346 346 344 344 343 341 341 339 338 335 334 335 337 338 338 337 336
347 348 349 350 351 349 348 348 349 351 351 351 350 349 347 349 347 347 343 341 341 342 341 341 346 344 345 346 341 343 343 342 343 343 341 340 335 333 334 333 333 333 335
349 349 349 351 351 351 351 351 351 352 352 352 352 349 345 343 346 345 347 341 339 340 341 340 345 345 344 345 343 341 343 340 341 344 344 343 341 335 333 333 333 333 332
349 349 351 352 352 353 353 351 352 352 351 351 350 345 337 340 343 343 347 347 342 339 340 343 344 345 345 345 345 343 342 340 340 342 344 344 344 344 341 337 335 335 335
349 351 351 352 353 353 353 354 354 352 351 349 348 349 343 344 337 344 343 344 346 340 339 341 343 344 344 345 345 345 344 342 343 341 342 341 344 345 343 342 340 336 336
349 352 351 351 351 351 352 354 352 350 350 351 349 347 347 347 337 336 340 343 346 342 339 338 340 342 342 342 342 343 342 344 345 341 342 341 342 343 345 344 343 342 341
348 352 351 352 351 352 352 353 352 353 354 352 349 350 350 349 340 338 342 344 346 346 344 339 338 337 338 340 343 345 345 343 344 345 343 341 340 343 343 344 345 344 343
348 351 352 353 353 351 354 353 354 355 354 352 349 349 349 348 347 347 339 340 346 347 348 344 345 343 340 339 344 345 344 345 341 343 341 341 342 342 343 344 344 344 343
345 348 349 349 348 352 354 355 355 352 351 352 351 352 351 352 351 351 350 347 341 347 349 345 345 343 343 344 345 346 341 344 341 340 340 342 340 340 343 344 344 344 345
344 346 348 350 349 354 355 355 353 352 352 352 351 348 347 348 349 350 349 348 349 348 348 348 346 343 342 341 343 344 345 341 343 340 339 339 340 342 342 343 343 342 343
345 346 349 350 349 355 354 354 353 353 351 345 341 342 340 340 344 347 350 350 348 348 345 345 346 346 345 342 339 342 345 340 341 343 342 341 343 343 345 344 342 342 342
348 349 350 352 353 353 353 354 352 350 344 337 330 327 326 327 330 332 335 339 343 347 349 349 344 344 345 344 344 341 341 344 338 338 344 342 340 342 344 344 342 342 342
352 354 355 355 354 352 353 352 349 343 328 324 323 324 325 325 325 325 324 324 324 325 335 345 347 346 344 345 343 344 341 340 339 338 343 344 343 343 345 342 341 340 340
355 355 352 351 351 349 345 344 336 325 326 325 325 326 327 328 327 327 327 326 326 326 327 329 334 341 345 344 343 342 343 344 339 339 339 341 341 344 346 346 345 341 340
351 348 351 347 343 345 345 331 326 327 326 327 327 328 329 331 331 330 330 329 329 328 329 329 329 331 336 341 343 343 341 343 344 343 342 342 342 338 337 337 341 344 343
345 347 336 334 344 344 330 327 328 327 328 326 324 326 327 327 328 332 333 332 330 330 330 330 330 329 329 328 328 334 340 341 341 342 341 340 339 339 341 338 333 332 335
348 334 333 338 343 337 328 329 328 329 330 329 328 327 327 326 325 325 328 333 334 333 332 331 330 328 326 327 327 327 326 329 337 339 341 341 341 338 333 337 336 335 335
339 334 336 343 331 330 331 330 330 330 330 330 329 329 329 328 328 327 326 325 325 324 323 323 322 322 321 322 322 322 324 325 325 326 333 337 339 340 339 334 332 334 334
Wind_Speed
4 3 1 1 1 1 3 6 6 7 9 12 14 13 13 13 14 14 12 11 12 16 15 15 12 17 13 13 13 15 15 16 16 17 16 16 15 14 16 15 14 13 12
4 2 1 3 4 5 5 7 8 9 10 12 11 15 15 15 14 15 15 14 14 14 16 19 16 15 19 15 15 16 17 17 16 17 17 17 16 16 15 16 17 15 14
3 4 4 6 7 9 10 9 10 11 13 14 14 13 16 17 16 16 15 14 16 15 18 17 20 19 18 22 18 17 18 18 17 17 17 18 18 18 17 16 17 18 17
3 5 6 7 8 9 10 11 13 15 17 16 16 17 16 15 15 15 15 15 14 16 14 16 19 20 20 19 23 20 19 19 19 18 19 18 19 19 19 18 17 18 19
6 7 8 7 10 11 11 12 14 18 17 15 16 17 13 15 16 17 18 17 15 14 14 14 12 18 21 22 23 25 22 20 19 19 20 20 20 20 19 19 19 20 18
7 7 8 8 10 11 11 14 14 16 17 17 18 16 17 16 13 10 15 14 13 11 12 12 15 15 19 21 23 26 26 25 22 21 19 20 20 20 21 20 21 21 20
5 5 8 9 9 10 10 11 15 15 15 15 18 19 18 15 7 12 13 13 14 15 14 12 14 17 17 21 22 24 28 28 28 26 23 20 22 22 22 22 22 22 22
6 7 7 8 9 11 12 12 13 14 14 12 16 19 17 21 6 24 19 14 18 16 16 16 16 17 16 16 19 22 25 31 33 31 25 26 21 22 23 24 24 24 24
7 8 8 8 9 11 11 10 13 13 14 13 14 13 10 10 30 22 19 23 19 20 20 19 17 16 16 13 14 17 22 26 27 31 30 34 31 25 24 22 24 24 24
10 10 11 11 10 9 8 9 10 13 15 15 14 13 15 17 21 22 20 23 23 20 21 16 14 12 12 14 13 15 16 19 24 26 30 29 36 33 27 25 24 22 22
10 9 9 8 8 10 9 11 11 13 16 18 18 19 19 17 18 18 27 28 25 22 22 14 9 10 11 11 15 15 13 15 17 19 24 27 29 40 40 35 33 29 26
10 10 9 7 7 8 10 13 13 15 18 20 21 19 20 18 19 17 22 26 25 24 23 20 3 4 7 6 8 8 15 16 19 19 20 23 30 30 33 46 44 37 34
14 10 11 10 9 9 10 13 15 18 19 20 22 23 23 24 24 23 19 20 21 24 21 18 10 2 4 5 9 12 14 15 15 14 19 22 24 29 29 27 36 45 37
16 13 13 13 13 14 14 15 15 15 17 20 23 22 22 19 21 16 11 16 21 22 20 15 11 7 5 5 6 11 16 19 22 25 20 24 24 24 28 28 32 31 37
18 16 16 15 14 15 17 17 16 16 18 20 18 19 21 18 17 14 11 14 17 21 24 18 13 15 14 15 14 14 15 17 21 29 26 24 27 27 31 29 30 32 31
20 20 19 18 18 18 18 16 17 20 22 19 18 18 18 15 16 18 17 18 17 20 24 22 22 20 20 21 18 17 16 18 16 20 24 17 17 15 15 24 27 30 31
22 22 20 19 19 20 17 17 20 20 20 19 18 19 18 17 16 16 18 21 22 23 26 28 25 21 20 19 16 16 15 16 14 11 15 16 15 16 18 20 21 26 30
24 24 23 24 22 19 18 21 19 17 19 19 18 18 18 19 18 19 19 20 22 23 23 28 28 25 20 17 16 18 14 15 13 11 15 14 19 17 17 19 20 22 27
24 25 25 25 21 21 22 18 16 17 18 17 18 19 20 20 20 19 20 21 22 22 24 26 28 29 28 20 17 18 19 18 18 16 19 19 19 17 18 19 21 21 21
20 20 20 20 17 16 15 16 17 16 15 18 21 23 23 23 24 24 24 24 23 23 24 26 27 27 27 25 24 21 21 19 18 17 19 20 21 22 19 19 23 20 20
15 14 13 15 17 19 17 16 15 15 17 18 22 22 21 22 23 23 24 24 25 25 24 24 25 26 25 24 22 21 24 21 19 17 19 20 23 25 22 23 22 24 25
12 9 10 14 15 18 17 14 16 16 16 17 17 17 17 19 18 17 18 16 18 20 20 20 21 23 24 24 22 20 19 22 20 16 16 14 16 16 18 22 24 24 26
16 15 4 14 22 19 16 16 16 16 16 16 18 19 21 21 23 21 21 20 18 18 18 17 19 18 20 20 23 23 21 21 22 19 18 21 19 20 17 16 17 21 27
28 20 15 29 25 24 19 16 15 14 14 16 18 18 19 22 22 23 23 24 23 20 19 20 20 19 19 20 20 21 22 24 24 25 21 26 24 22 19 19 18 18 19
24 30 18 24 20 20 18 14 14 15 15 16 16 17 20 20 20 21 22 23 24 24 25 24 24 24 25 24 23 24 23 22 26 28 24 22 26 26 24 22 22 21 21
23 15 11 12 13 11 12 17 16 16 19 21 19 18 19 24 23 23 21 23 26 24 26 27 27 28 29 31 29 28 26 28 28 29 29 25 26 20 17 21 22 21 21
Wind_Direction
143 112 103 54 53 321 290 315 325 300 299 301 304 314 308 302 295 293 291 286 278 254 248 256 246 232 239 234 231 225 223 221 217 215 208 212 207 206 205 199 199 194 191
178 177 272 299 309 314 320 320 319 321 308 299 312 318 322 308 298 290 288 281 271 267 256 258 257 244 230 234 235 232 225 226 223 220 218 215 212 209 209 207 204 197 199
237 263 282 304 303 302 307 310 319 331 328 333 335 324 317 316 315 307 295 289 279 263 253 257 254 245 235 230 236 235 229 224 226 224 220 218 217 214 213 210 209 205 204
254 274 290 301 307 303 312 317 329 330 331 331 328 327 321 316 318 316 312 307 303 301 288 261 256 250 242 234 231 230 234 225 224 226 222 221 219 218 218 214 213 211 211
269 292 312 311 306 295 304 311 318 323 329 331 330 335 320 322 325 315 312 306 303 295 291 284 272 254 241 238 234 228 227 229 221 225 224 223 223 220 219 220 217 215 216
266 290 310 315 312 309 307 317 319 327 328 330 326 335 332 324 328 341 344 332 324 322 298 292 281 269 247 236 234 229 223 224 223 221 222 223 224 224 222 223 220 219 218
266 282 302 307 305 319 317 317 320 326 326 322 327 331 335 340 335 339 350 332 320 319 308 287 274 278 257 243 234 234 221 223 218 224 232 227 224 225 223 223 223 223 221
259 283 300 319 309 302 307 313 311 315 316 318 324 331 337 342 346 335 346 357 338 327 310 286 281 267 260 243 243 236 231 233 226 229 231 234 234 229 225 224 225 225 224
249 277 291 299 306 305 310 299 304 304 307 315 318 323 330 315 326 331 341 348 344 338 320 293 273 264 255 240 231 240 237 234 236 233 235 233 232 229 222 223 223 223 227
248 264 285 293 289 295 303 307 302 307 307 311 307 311 325 320 317 318 325 339 347 350 337 309 271 256 243 230 222 229 233 250 242 238 236 234 226 224 223 216 218 220 225
254 259 269 279 289 276 283 289 297 301 302 306 308 313 323 325 317 321 318 334 346 2 355 334 269 248 248 254 225 253 250 259 242 238 244 236 231 226 231 230 228 229 231
233 251 263 243 263 278 274 269 277 288 297 302 305 312 332 318 311 313 314 322 334 354 4 2 285 249 241 266 257 274 271 248 240 246 250 239 233 229 231 235 235 234 234
239 246 251 254 264 283 290 279 273 277 292 303 307 306 314 323 316 302 306 314 324 338 0 15 36 30 288 269 261 278 268 254 241 244 249 244 238 233 236 232 232 231 231
231 238 242 250 268 277 285 298 292 283 292 307 313 314 311 322 327 313 281 312 318 324 338 352 15 14 335 309 294 276 270 256 249 255 267 253 242 243 236 234 231 228 232
232 241 247 253 261 276 280 290 293 299 307 314 320 314 313 305 329 331 315 315 309 311 317 324 327 333 326 315 306 293 285 272 264 256 262 265 240 248 242 240 237 236 238
240 247 254 262 270 278 281 282 290 305 303 305 303 304 306 303 305 315 312 309 302 301 296 305 310 311 310 309 307 296 296 295 286 259 252 236 228 238 246 239 238 235 228
245 250 257 263 275 276 278 285 297 297 296 305 303 302 301 304 295 301 299 299 297 300 296 299 303 305 309 311 312 306 301 305 289 261 221 223 224 239 247 244 244 237 232
246 252 261 268 274 271 277 289 287 288 296 298 302 304 308 303 300 299 295 294 295 297 297 299 299 301 301 307 315 308 298 301 294 260 238 229 234 241 245 243 251 242 236
253 258 265 268 266 273 277 276 276 285 293 301 308 310 310 304 301 299 299 302 302 298 297 297 300 303 304 298 294 297 304 305 283 270 253 242 245 249 247 248 247 245 238
258 260 265 270 270 271 268 273 277 284 295 306 308 308 306 308 310 307 304 302 299 300 303 299 294 297 304 305 296 291 294 298 295 266 255 248 244 253 257 254 251 245 244
245 245 252 257 267 272 268 269 272 286 299 304 306 305 305 304 305 310 308 307 305 302 299 299 301 301 302 308 308 305 295 287 286 272 261 256 251 252 250 254 248 243 243
227 243 282 276 266 264 260 264 279 284 294 306 317 320 317 312 311 317 322 321 315 314 314 309 302 299 299 298 299 298 297 295 289 277 262 262 254 251 247 245 249 246 243
200 200 207 301 284 265 264 272 278 290 303 320 323 318 315 314 313 311 310 314 317 323 321 313 311 316 308 304 299 291 287 284 281 281 273 267 257 262 262 254 244 241 242
214 203 248 238 257 264 267 269 282 296 306 316 318 321 320 314 310 304 301 299 301 308 310 311 311 310 308 311 310 305 293 282 276 275 278 279 276 270 267 258 251 245 245
212 301 287 219 238 249 260 273 283 286 294 299 312 320 323 324 322 310 304 297 295 298 297 298 299 301 302 300 299 297 296 292 285 272 275 282 281 283 273 263 254 255 259
284 286 224 224 233 246 266 268 271 278 284 296 304 307 311 309 305 304 305 300 302 306 303 302 299 299 300 298 294 291 286 281 281 281 273 268 272 278 287 269 265 259 259